GPS BIIR-18M

Last updated on Sun Oct 19 2025 00:02:33 GMT+0000 (Coordinated Universal Time)

1 32384U 07062A 25291.23224913 -.00000041 00000+0 00000+0 0 9994 2 32384 55.2288 283.8714 0032351 163.8328 195.6188 2.00574610130658
UTC large
Height (km)
Speed (km/s)
/
Latitude / Longitude
Inclination (degrees)
Orbital Period (minutes)
Azimuth
Elevation
Range (km)
Doppler Factor

Next 0 passes for location: London (51.5072 / 0.1276)

Sorry there are no passes over London.